Year,Month,Day,Hour,Minute,Value (Times are PST for temperature in C)
2007,06,22,00,00,13.50
2007,06,22,00,01,13.50
2007,06,22,00,02,13.50
2007,06,22,00,03,13.50
2007,06,22,00,04,13.50
2007,06,22,00,05,13.50
2007,06,22,00,06,13.50
2007,06,22,00,07,13.50
2007,06,22,00,08,13.50
2007,06,22,00,09,13.50
2007,06,22,00,10,13.50
2007,06,22,00,11,13.60
2007,06,22,00,12,13.60
2007,06,22,00,13,13.60
2007,06,22,00,14,13.60
2007,06,22,00,15,13.60
2007,06,22,00,16,13.60
2007,06,22,00,17,13.60
2007,06,22,00,18,13.60
2007,06,22,00,19,13.60
2007,06,22,00,20,13.60
2007,06,22,00,21,13.60
2007,06,22,00,22,13.60
2007,06,22,00,23,13.60
2007,06,22,00,24,13.70
2007,06,22,00,25,13.70
2007,06,22,00,26,13.70
2007,06,22,00,27,13.70
2007,06,22,00,28,13.70
2007,06,22,00,29,13.70
2007,06,22,00,30,13.70
2007,06,22,00,31,13.70
2007,06,22,00,32,13.70
2007,06,22,00,33,13.70
2007,06,22,00,34,13.70
2007,06,22,00,35,13.70
2007,06,22,00,36,13.70
2007,06,22,00,37,13.70
2007,06,22,00,38,13.70
2007,06,22,00,39,13.70
2007,06,22,00,40,13.70
2007,06,22,00,41,13.80
2007,06,22,00,42,13.80
2007,06,22,00,43,13.80
2007,06,22,00,44,13.80
2007,06,22,00,45,13.80
2007,06,22,00,46,13.80
2007,06,22,00,47,13.80
2007,06,22,00,48,13.70
2007,06,22,00,49,13.70
2007,06,22,00,50,13.70
2007,06,22,00,51,13.70
2007,06,22,00,52,13.70
2007,06,22,00,53,13.70
2007,06,22,00,54,13.70
2007,06,22,00,55,13.70
2007,06,22,00,56,13.70
2007,06,22,00,57,13.70
2007,06,22,00,58,13.70
2007,06,22,00,59,13.70
2007,06,22,01,00,13.70
2007,06,22,01,01,13.70
2007,06,22,01,02,13.70
2007,06,22,01,03,13.70
2007,06,22,01,04,13.70
2007,06,22,01,05,13.70
2007,06,22,01,06,13.70
2007,06,22,01,07,13.70
2007,06,22,01,08,13.70
2007,06,22,01,09,13.70
2007,06,22,01,10,13.70
2007,06,22,01,11,13.70
2007,06,22,01,12,13.70
2007,06,22,01,13,13.70
2007,06,22,01,14,13.70
2007,06,22,01,15,13.70
2007,06,22,01,16,13.70
2007,06,22,01,17,13.70
2007,06,22,01,18,13.70
2007,06,22,01,19,13.70
2007,06,22,01,20,13.60
2007,06,22,01,21,13.60
2007,06,22,01,22,13.60
2007,06,22,01,23,13.60
2007,06,22,01,24,13.50
2007,06,22,01,25,13.50
2007,06,22,01,26,13.50
2007,06,22,01,27,13.40
2007,06,22,01,28,13.40
2007,06,22,01,29,13.40
2007,06,22,01,30,13.40
2007,06,22,01,31,13.40
2007,06,22,01,32,13.40
2007,06,22,01,33,13.30
2007,06,22,01,34,13.40
2007,06,22,01,35,13.40
2007,06,22,01,36,13.40
2007,06,22,01,37,13.40
2007,06,22,01,38,13.40
2007,06,22,01,39,13.40
2007,06,22,01,40,13.40
2007,06,22,01,41,13.40
2007,06,22,01,42,13.40
2007,06,22,01,43,13.40
2007,06,22,01,44,13.30
2007,06,22,01,45,13.30
2007,06,22,01,46,13.30
2007,06,22,01,47,13.30
2007,06,22,01,48,13.30
2007,06,22,01,49,13.30
2007,06,22,01,50,13.30
2007,06,22,01,51,13.30
2007,06,22,01,52,13.30
2007,06,22,01,53,13.30
2007,06,22,01,54,13.30
2007,06,22,01,55,13.30
2007,06,22,01,56,13.30
2007,06,22,01,57,13.30
2007,06,22,01,58,13.30
2007,06,22,01,59,13.30
2007,06,22,02,00,13.30
2007,06,22,02,01,13.30
2007,06,22,02,02,13.30
2007,06,22,02,03,13.30
2007,06,22,02,04,13.30
2007,06,22,02,05,13.30
2007,06,22,02,06,13.30
2007,06,22,02,07,13.30
2007,06,22,02,08,13.30
2007,06,22,02,09,13.30
2007,06,22,02,10,13.30
2007,06,22,02,11,13.30
2007,06,22,02,12,13.30
2007,06,22,02,13,13.30
2007,06,22,02,14,13.30
2007,06,22,02,15,13.30
2007,06,22,02,16,13.30
2007,06,22,02,17,13.20
2007,06,22,02,18,13.20
2007,06,22,02,19,13.20
2007,06,22,02,20,13.20
2007,06,22,02,21,13.20
2007,06,22,02,22,13.20
2007,06,22,02,23,13.10
2007,06,22,02,24,13.10
2007,06,22,02,25,13.10
2007,06,22,02,26,13.00
2007,06,22,02,27,12.90
2007,06,22,02,28,12.90
2007,06,22,02,29,12.80
2007,06,22,02,30,12.80
2007,06,22,02,31,12.70
2007,06,22,02,32,12.70
2007,06,22,02,33,12.70
2007,06,22,02,34,12.70
2007,06,22,02,35,12.70
2007,06,22,02,36,12.70
2007,06,22,02,37,12.70
2007,06,22,02,38,12.70
2007,06,22,02,39,12.80
2007,06,22,02,40,12.80
2007,06,22,02,41,12.90
2007,06,22,02,42,12.90
2007,06,22,02,43,12.90
2007,06,22,02,44,13.00
2007,06,22,02,45,13.00
2007,06,22,02,46,13.10
2007,06,22,02,47,13.10
2007,06,22,02,48,13.10
2007,06,22,02,49,13.10
2007,06,22,02,50,13.10
2007,06,22,02,51,13.10
2007,06,22,02,52,13.10
2007,06,22,02,53,13.10
2007,06,22,02,54,13.10
2007,06,22,02,55,13.10
2007,06,22,02,56,13.10
2007,06,22,02,57,13.10
2007,06,22,02,58,13.10
2007,06,22,02,59,13.10
2007,06,22,03,00,13.10
2007,06,22,03,01,13.10
2007,06,22,03,02,13.10
2007,06,22,03,03,13.20
2007,06,22,03,04,13.20
2007,06,22,03,05,13.20
2007,06,22,03,06,13.20
2007,06,22,03,07,13.20
2007,06,22,03,08,13.20
2007,06,22,03,09,13.20
2007,06,22,03,10,13.30
2007,06,22,03,11,13.30
2007,06,22,03,12,13.30
2007,06,22,03,13,13.30
2007,06,22,03,14,13.30
2007,06,22,03,15,13.30
2007,06,22,03,16,13.30
2007,06,22,03,17,13.30
2007,06,22,03,18,13.30
2007,06,22,03,19,13.30
2007,06,22,03,20,13.30
2007,06,22,03,21,13.30
2007,06,22,03,22,13.30
2007,06,22,03,23,13.30
2007,06,22,03,24,13.30
2007,06,22,03,25,13.30
2007,06,22,03,26,13.30
2007,06,22,03,27,13.30
2007,06,22,03,28,13.20
2007,06,22,03,29,13.20
2007,06,22,03,30,13.10
2007,06,22,03,31,13.10
2007,06,22,03,32,13.00
2007,06,22,03,33,13.00
2007,06,22,03,34,12.90
2007,06,22,03,35,12.90
2007,06,22,03,36,12.80
2007,06,22,03,37,12.80
2007,06,22,03,38,12.80
2007,06,22,03,39,12.80
2007,06,22,03,40,12.70
2007,06,22,03,41,12.70
2007,06,22,03,42,12.70
2007,06,22,03,43,12.70
2007,06,22,03,44,12.70
2007,06,22,03,45,12.70
2007,06,22,03,46,12.70
2007,06,22,03,47,12.70
2007,06,22,03,48,12.70
2007,06,22,03,49,12.70
2007,06,22,03,50,12.70
2007,06,22,03,51,12.70
2007,06,22,03,52,12.70
2007,06,22,03,53,12.70
2007,06,22,03,54,12.70
2007,06,22,03,55,12.70
2007,06,22,03,56,12.70
2007,06,22,03,57,12.80
2007,06,22,03,58,12.80
2007,06,22,03,59,12.80
2007,06,22,04,00,12.80
2007,06,22,04,01,12.80
2007,06,22,04,02,12.80
2007,06,22,04,03,12.80
2007,06,22,04,04,12.90
2007,06,22,04,05,12.90
2007,06,22,04,06,12.90
2007,06,22,04,07,12.80
2007,06,22,04,08,12.80
2007,06,22,04,09,12.90
2007,06,22,04,10,12.80
2007,06,22,04,11,12.80
2007,06,22,04,12,12.80
2007,06,22,04,13,12.80
2007,06,22,04,14,12.80
2007,06,22,04,15,12.80
2007,06,22,04,16,12.80
2007,06,22,04,17,12.80
2007,06,22,04,18,12.80
2007,06,22,04,19,12.80
2007,06,22,04,20,12.80
2007,06,22,04,21,12.80
2007,06,22,04,22,12.80
2007,06,22,04,23,12.80
2007,06,22,04,24,12.80
2007,06,22,04,25,12.70
2007,06,22,04,26,12.70
2007,06,22,04,27,12.70
2007,06,22,04,28,12.70
2007,06,22,04,29,12.70
2007,06,22,04,30,12.70
2007,06,22,04,31,12.70
2007,06,22,04,32,12.60
2007,06,22,04,33,12.60
2007,06,22,04,34,12.60
2007,06,22,04,35,12.60
2007,06,22,04,36,12.50
2007,06,22,04,37,12.50
2007,06,22,04,38,12.50
2007,06,22,04,39,12.50
2007,06,22,04,40,12.50
2007,06,22,04,41,12.40
2007,06,22,04,42,12.40
2007,06,22,04,43,12.40
2007,06,22,04,44,12.40
2007,06,22,04,45,12.30
2007,06,22,04,46,12.30
2007,06,22,04,47,12.30
2007,06,22,04,48,12.30
2007,06,22,04,49,12.40
2007,06,22,04,50,12.40
2007,06,22,04,51,12.40
2007,06,22,04,52,12.50
2007,06,22,04,53,12.50
2007,06,22,04,54,12.40
2007,06,22,04,55,12.40
2007,06,22,04,56,12.40
2007,06,22,04,57,12.40
2007,06,22,04,58,12.30
2007,06,22,04,59,12.30
2007,06,22,05,00,12.30
2007,06,22,05,01,12.30
2007,06,22,05,02,12.30
2007,06,22,05,03,12.30
2007,06,22,05,04,12.30
2007,06,22,05,05,12.30
2007,06,22,05,06,12.30
2007,06,22,05,07,12.20
2007,06,22,05,08,12.20
2007,06,22,05,09,12.30
2007,06,22,05,10,12.30
2007,06,22,05,11,12.40
2007,06,22,05,12,12.40
2007,06,22,05,13,12.50
2007,06,22,05,14,12.50
2007,06,22,05,15,12.60
2007,06,22,05,16,12.60
2007,06,22,05,17,12.70
2007,06,22,05,18,12.70
2007,06,22,05,19,12.70
2007,06,22,05,20,12.80
2007,06,22,05,21,12.80
2007,06,22,05,22,12.80
2007,06,22,05,23,12.90
2007,06,22,05,24,12.90
2007,06,22,05,25,12.90
2007,06,22,05,26,12.90
2007,06,22,05,27,12.90
2007,06,22,05,28,13.00
2007,06,22,05,29,13.00
2007,06,22,05,30,13.00
2007,06,22,05,31,13.10
2007,06,22,05,32,13.10
2007,06,22,05,33,13.10
2007,06,22,05,34,13.10
2007,06,22,05,35,13.10
2007,06,22,05,36,13.10
2007,06,22,05,37,13.10
2007,06,22,05,38,13.10
2007,06,22,05,39,13.10
2007,06,22,05,40,13.10
2007,06,22,05,41,13.10
2007,06,22,05,42,13.10
2007,06,22,05,43,13.10
2007,06,22,05,44,13.10
2007,06,22,05,45,13.00
2007,06,22,05,46,13.00
2007,06,22,05,47,13.00
2007,06,22,05,48,12.90
2007,06,22,05,49,12.90
2007,06,22,05,50,12.90
2007,06,22,05,51,12.90
2007,06,22,05,52,12.80
2007,06,22,05,53,12.80
2007,06,22,05,54,12.80
2007,06,22,05,55,12.80
2007,06,22,05,56,12.80
2007,06,22,05,57,12.80
2007,06,22,05,58,12.80
2007,06,22,05,59,12.70
2007,06,22,06,00,12.70
2007,06,22,06,01,12.70
2007,06,22,06,02,12.70
2007,06,22,06,03,12.70
2007,06,22,06,04,12.70
2007,06,22,06,05,12.70
2007,06,22,06,06,12.70
2007,06,22,06,07,12.70
2007,06,22,06,08,12.70
2007,06,22,06,09,12.70
2007,06,22,06,10,12.80
2007,06,22,06,11,12.80
2007,06,22,06,12,12.90
2007,06,22,06,13,12.90
2007,06,22,06,14,12.90
2007,06,22,06,15,13.00
2007,06,22,06,16,13.00
2007,06,22,06,17,13.00
2007,06,22,06,18,12.90
2007,06,22,06,19,12.90
2007,06,22,06,20,12.90
2007,06,22,06,21,12.90
2007,06,22,06,22,12.90
2007,06,22,06,23,12.90
2007,06,22,06,24,12.80
2007,06,22,06,25,12.90
2007,06,22,06,26,12.90
2007,06,22,06,27,12.90
2007,06,22,06,28,12.90
2007,06,22,06,29,12.90
2007,06,22,06,30,12.90
2007,06,22,06,31,12.90
2007,06,22,06,32,12.90
2007,06,22,06,33,12.90
2007,06,22,06,34,12.90
2007,06,22,06,35,12.90
2007,06,22,06,36,12.80
2007,06,22,06,37,12.80
2007,06,22,06,38,12.80
2007,06,22,06,39,12.70
2007,06,22,06,40,12.70
2007,06,22,06,41,12.70
2007,06,22,06,42,12.70
2007,06,22,06,43,12.70
2007,06,22,06,44,12.60
2007,06,22,06,45,12.60
2007,06,22,06,46,12.60
2007,06,22,06,47,12.60
2007,06,22,06,48,12.60
2007,06,22,06,49,12.50
2007,06,22,06,50,12.50
2007,06,22,06,51,12.50
2007,06,22,06,52,12.50
2007,06,22,06,53,12.50
2007,06,22,06,54,12.50
2007,06,22,06,55,12.40
2007,06,22,06,56,12.40
2007,06,22,06,57,12.40
2007,06,22,06,58,12.40
2007,06,22,06,59,12.40
2007,06,22,07,00,12.30
2007,06,22,07,01,12.30
2007,06,22,07,02,12.30
2007,06,22,07,03,12.30
2007,06,22,07,04,12.30
2007,06,22,07,05,12.40
2007,06,22,07,06,12.40
2007,06,22,07,07,12.40
2007,06,22,07,08,12.50
2007,06,22,07,09,12.50
2007,06,22,07,10,12.60
2007,06,22,07,11,12.60
2007,06,22,07,12,12.70
2007,06,22,07,13,12.80
2007,06,22,07,14,12.90
2007,06,22,07,15,13.00
2007,06,22,07,16,13.20
2007,06,22,07,17,13.30
2007,06,22,07,18,13.50
2007,06,22,07,19,13.60
2007,06,22,07,20,13.80
2007,06,22,07,21,13.90
2007,06,22,07,22,14.00
2007,06,22,07,23,14.00
2007,06,22,07,24,14.10
2007,06,22,07,25,14.10
2007,06,22,07,26,14.20
2007,06,22,07,27,14.20
2007,06,22,07,28,14.20
2007,06,22,07,29,14.30
2007,06,22,07,30,14.30
2007,06,22,07,31,14.30
2007,06,22,07,32,14.40
2007,06,22,07,33,14.50
2007,06,22,07,34,14.50
2007,06,22,07,35,14.50
2007,06,22,07,36,14.50
2007,06,22,07,37,14.50
2007,06,22,07,38,14.50
2007,06,22,07,39,14.40
2007,06,22,07,40,14.50
2007,06,22,07,41,14.50
2007,06,22,07,42,14.60
2007,06,22,07,43,14.70
2007,06,22,07,44,14.80
2007,06,22,07,45,14.90
2007,06,22,07,46,15.00
2007,06,22,07,47,15.00
2007,06,22,07,48,15.00
2007,06,22,07,49,15.00
2007,06,22,07,50,15.00
2007,06,22,07,51,15.00
2007,06,22,07,52,15.00
2007,06,22,07,53,15.00
2007,06,22,07,54,14.90
2007,06,22,07,55,14.80
2007,06,22,07,56,14.80
2007,06,22,07,57,14.70
2007,06,22,07,58,14.70
2007,06,22,07,59,14.70
2007,06,22,08,00,14.70
2007,06,22,08,01,14.70
2007,06,22,08,02,14.70
2007,06,22,08,03,14.70
2007,06,22,08,04,14.70
2007,06,22,08,05,14.70
2007,06,22,08,06,14.70
2007,06,22,08,07,14.70
2007,06,22,08,08,14.70
2007,06,22,08,09,14.70
2007,06,22,08,10,14.80
2007,06,22,08,11,14.80
2007,06,22,08,12,14.80
2007,06,22,08,13,14.90
2007,06,22,08,14,14.90
2007,06,22,08,15,14.90
2007,06,22,08,16,14.90
2007,06,22,08,17,14.80
2007,06,22,08,18,14.90
2007,06,22,08,19,14.90
2007,06,22,08,20,14.90
2007,06,22,08,21,14.90
2007,06,22,08,22,14.80
2007,06,22,08,23,14.80
2007,06,22,08,24,14.70
2007,06,22,08,25,14.70
2007,06,22,08,26,14.60
2007,06,22,08,27,14.50
2007,06,22,08,28,14.50
2007,06,22,08,29,14.50
2007,06,22,08,30,14.50
2007,06,22,08,31,14.50
2007,06,22,08,32,14.60
2007,06,22,08,33,14.70
2007,06,22,08,34,14.80
2007,06,22,08,35,14.80
2007,06,22,08,36,14.90
2007,06,22,08,37,15.00
2007,06,22,08,38,15.00
2007,06,22,08,39,15.00
2007,06,22,08,40,15.00
2007,06,22,08,41,15.00
2007,06,22,08,42,15.00
2007,06,22,08,43,15.10
2007,06,22,08,44,15.30
2007,06,22,08,45,15.40
2007,06,22,08,46,15.50
2007,06,22,08,47,15.50
2007,06,22,08,48,15.60
2007,06,22,08,49,15.50
2007,06,22,08,50,15.50
2007,06,22,08,51,15.50
2007,06,22,08,52,15.40
2007,06,22,08,53,15.40
2007,06,22,08,54,15.40
2007,06,22,08,55,15.40
2007,06,22,08,56,15.40
2007,06,22,08,57,15.40
2007,06,22,08,58,15.40
2007,06,22,08,59,15.40
2007,06,22,09,00,15.40
2007,06,22,09,01,15.30
2007,06,22,09,02,15.30
2007,06,22,09,03,15.20
2007,06,22,09,04,15.10
2007,06,22,09,05,15.10
2007,06,22,09,06,15.00
2007,06,22,09,07,15.00
2007,06,22,09,08,15.00
2007,06,22,09,09,15.00
2007,06,22,09,10,15.00
2007,06,22,09,11,15.00
2007,06,22,09,12,15.00
2007,06,22,09,13,15.00
2007,06,22,09,14,15.00
2007,06,22,09,15,15.00
2007,06,22,09,16,15.00
2007,06,22,09,17,15.00
2007,06,22,09,18,15.00
2007,06,22,09,19,15.00
2007,06,22,09,20,15.00
2007,06,22,09,21,15.00
2007,06,22,09,22,14.90
2007,06,22,09,23,14.80
2007,06,22,09,24,14.90
2007,06,22,09,25,14.90
2007,06,22,09,26,15.00
2007,06,22,09,27,15.00
2007,06,22,09,28,15.20
2007,06,22,09,29,15.30
2007,06,22,09,30,15.40
2007,06,22,09,31,15.50
2007,06,22,09,32,15.60
2007,06,22,09,33,15.60
2007,06,22,09,34,15.70
2007,06,22,09,35,15.70
2007,06,22,09,36,15.80
2007,06,22,09,37,15.80
2007,06,22,09,38,15.80
2007,06,22,09,39,15.80
2007,06,22,09,40,15.80
2007,06,22,09,41,15.80
2007,06,22,09,42,15.90
2007,06,22,09,43,16.00
2007,06,22,09,44,16.10
2007,06,22,09,45,16.20
2007,06,22,09,46,16.30
2007,06,22,09,47,16.40
2007,06,22,09,48,16.50
2007,06,22,09,49,16.50
2007,06,22,09,50,16.40
2007,06,22,09,51,16.40
2007,06,22,09,52,16.30
2007,06,22,09,53,16.30
2007,06,22,09,54,16.30
2007,06,22,09,55,16.30
2007,06,22,09,56,16.30
2007,06,22,09,57,16.30
2007,06,22,09,58,16.30
2007,06,22,09,59,16.30
2007,06,22,10,00,16.30
2007,06,22,10,01,16.20
2007,06,22,10,02,16.30
2007,06,22,10,03,16.30
2007,06,22,10,04,16.40
2007,06,22,10,05,16.50
2007,06,22,10,06,16.60
2007,06,22,10,07,16.60
2007,06,22,10,08,16.60
2007,06,22,10,09,16.60
2007,06,22,10,10,16.50
2007,06,22,10,11,16.40
2007,06,22,10,12,16.30
2007,06,22,10,13,16.20
2007,06,22,10,14,16.00
2007,06,22,10,15,15.90
2007,06,22,10,16,15.80
2007,06,22,10,17,15.80
2007,06,22,10,18,15.80
2007,06,22,10,19,15.90
2007,06,22,10,20,16.10
2007,06,22,10,21,16.30
2007,06,22,10,22,16.40
2007,06,22,10,23,16.50
2007,06,22,10,24,16.60
2007,06,22,10,25,16.70
2007,06,22,10,26,16.80
2007,06,22,10,27,16.80
2007,06,22,10,28,16.80
2007,06,22,10,29,16.80
2007,06,22,10,30,16.70
2007,06,22,10,31,16.60
2007,06,22,10,32,16.70
2007,06,22,10,33,16.80
2007,06,22,10,34,16.90
2007,06,22,10,35,16.90
2007,06,22,10,36,16.90
2007,06,22,10,37,16.90
2007,06,22,10,38,16.80
2007,06,22,10,39,16.80
2007,06,22,10,40,16.80
2007,06,22,10,41,16.80
2007,06,22,10,42,16.70
2007,06,22,10,43,16.70
2007,06,22,10,44,16.70
2007,06,22,10,45,16.60
2007,06,22,10,46,16.70
2007,06,22,10,47,16.80
2007,06,22,10,48,16.90
2007,06,22,10,49,16.90
2007,06,22,10,50,16.80
2007,06,22,10,51,16.80
2007,06,22,10,52,16.80
2007,06,22,10,53,16.80
2007,06,22,10,54,16.80
2007,06,22,10,55,16.70
2007,06,22,10,56,16.60
2007,06,22,10,57,16.50
2007,06,22,10,58,16.30
2007,06,22,10,59,16.20
2007,06,22,11,00,16.10
2007,06,22,11,01,16.10
2007,06,22,11,02,16.10
2007,06,22,11,03,16.20
2007,06,22,11,04,16.10
2007,06,22,11,05,16.10
2007,06,22,11,06,16.10
2007,06,22,11,07,16.10
2007,06,22,11,08,16.00
2007,06,22,11,09,15.90
2007,06,22,11,10,15.90
2007,06,22,11,11,15.90
2007,06,22,11,12,15.90
2007,06,22,11,13,15.90
2007,06,22,11,14,16.00
2007,06,22,11,15,16.10
2007,06,22,11,16,16.10
2007,06,22,11,17,16.00
2007,06,22,11,18,16.00
2007,06,22,11,19,16.00
2007,06,22,11,20,15.90
2007,06,22,11,21,15.90
2007,06,22,11,22,16.00
2007,06,22,11,23,15.90
2007,06,22,11,24,15.90
2007,06,22,11,25,15.80
2007,06,22,11,26,15.80
2007,06,22,11,27,15.80
2007,06,22,11,28,15.80
2007,06,22,11,29,15.70
2007,06,22,11,30,15.60
2007,06,22,11,31,15.50
2007,06,22,11,32,15.50
2007,06,22,11,33,15.50
2007,06,22,11,34,15.50
2007,06,22,11,35,15.60
2007,06,22,11,36,15.60
2007,06,22,11,37,15.60
2007,06,22,11,38,15.60
2007,06,22,11,39,15.60
2007,06,22,11,40,15.60
2007,06,22,11,41,15.60
2007,06,22,11,42,15.60
2007,06,22,11,43,15.60
2007,06,22,11,44,15.60
2007,06,22,11,45,15.70
2007,06,22,11,46,15.70
2007,06,22,11,47,15.80
2007,06,22,11,48,15.80
2007,06,22,11,49,15.90
2007,06,22,11,50,15.90
2007,06,22,11,51,15.80
2007,06,22,11,52,15.80
2007,06,22,11,53,15.80
2007,06,22,11,54,15.80
2007,06,22,11,55,15.90
2007,06,22,11,56,15.80
2007,06,22,11,57,15.80
2007,06,22,11,58,15.90
2007,06,22,11,59,15.90
2007,06,22,12,00,15.90
2007,06,22,12,01,15.90
2007,06,22,12,02,15.90
2007,06,22,12,03,15.90
2007,06,22,12,04,15.80
2007,06,22,12,05,15.80
2007,06,22,12,06,15.80
2007,06,22,12,07,15.80
2007,06,22,12,08,15.90
2007,06,22,12,09,15.90
2007,06,22,12,10,15.90
2007,06,22,12,11,15.90
2007,06,22,12,12,15.90
2007,06,22,12,13,15.90
2007,06,22,12,14,15.90
2007,06,22,12,15,15.90
2007,06,22,12,16,16.00
2007,06,22,12,17,16.00
2007,06,22,12,18,16.00
2007,06,22,12,19,16.10
2007,06,22,12,20,16.10
2007,06,22,12,21,16.20
2007,06,22,12,22,16.20
2007,06,22,12,23,16.10
2007,06,22,12,24,16.10
2007,06,22,12,25,16.10
2007,06,22,12,26,16.20
2007,06,22,12,27,16.30
2007,06,22,12,28,16.40
2007,06,22,12,29,16.40
2007,06,22,12,30,16.40
2007,06,22,12,31,16.30
2007,06,22,12,32,16.30
2007,06,22,12,33,16.20
2007,06,22,12,34,16.20
2007,06,22,12,35,16.20
2007,06,22,12,36,16.20
2007,06,22,12,37,16.20
2007,06,22,12,38,16.10
2007,06,22,12,39,16.10
2007,06,22,12,40,16.10
2007,06,22,12,41,16.20
2007,06,22,12,42,16.20
2007,06,22,12,43,16.20
2007,06,22,12,44,16.20
2007,06,22,12,45,16.20
2007,06,22,12,46,16.20
2007,06,22,12,47,16.30
2007,06,22,12,48,16.30
2007,06,22,12,49,16.30
2007,06,22,12,50,16.30
2007,06,22,12,51,16.30
2007,06,22,12,52,16.30
2007,06,22,12,53,16.30
2007,06,22,12,54,16.30
2007,06,22,12,55,16.40
2007,06,22,12,56,16.40
2007,06,22,12,57,16.40
2007,06,22,12,58,16.40
2007,06,22,12,59,16.40
2007,06,22,13,00,16.50
2007,06,22,13,01,16.50
2007,06,22,13,02,16.60
2007,06,22,13,03,16.70
2007,06,22,13,04,16.70
2007,06,22,13,05,16.60
2007,06,22,13,06,16.70
2007,06,22,13,07,16.70
2007,06,22,13,08,16.70
2007,06,22,13,09,16.80
2007,06,22,13,10,16.80
2007,06,22,13,11,16.90
2007,06,22,13,12,17.00
2007,06,22,13,13,17.10
2007,06,22,13,14,17.20
2007,06,22,13,15,17.30
2007,06,22,13,16,17.30
2007,06,22,13,17,17.40
2007,06,22,13,18,17.50
2007,06,22,13,19,17.60
2007,06,22,13,20,17.50
2007,06,22,13,21,17.40
2007,06,22,13,22,17.40
2007,06,22,13,23,17.50
2007,06,22,13,24,17.50
2007,06,22,13,25,17.40
2007,06,22,13,26,17.40
2007,06,22,13,27,17.30
2007,06,22,13,28,17.30
2007,06,22,13,29,17.30
2007,06,22,13,30,17.30
2007,06,22,13,31,17.20
2007,06,22,13,32,17.20
2007,06,22,13,33,17.20
2007,06,22,13,34,17.10
2007,06,22,13,35,17.10
2007,06,22,13,36,17.10
2007,06,22,13,37,17.00
2007,06,22,13,38,17.00
2007,06,22,13,39,17.00
2007,06,22,13,40,17.00
2007,06,22,13,41,16.80
2007,06,22,13,42,16.70
2007,06,22,13,43,16.70
2007,06,22,13,44,16.70
2007,06,22,13,45,16.70
2007,06,22,13,46,16.70
2007,06,22,13,47,16.70
2007,06,22,13,48,16.70
2007,06,22,13,49,16.70
2007,06,22,13,50,16.70
2007,06,22,13,51,16.70
2007,06,22,13,52,16.70
2007,06,22,13,53,16.70
2007,06,22,13,54,16.70
2007,06,22,13,55,16.70
2007,06,22,13,56,16.60
2007,06,22,13,57,16.60
2007,06,22,13,58,16.60
2007,06,22,13,59,16.50
2007,06,22,14,00,16.50
2007,06,22,14,01,16.50
2007,06,22,14,02,16.50
2007,06,22,14,03,16.50
2007,06,22,14,04,16.50
2007,06,22,14,05,16.50
2007,06,22,14,06,16.60
2007,06,22,14,07,16.60
2007,06,22,14,08,16.60
2007,06,22,14,09,16.70
2007,06,22,14,10,16.70
2007,06,22,14,11,16.70
2007,06,22,14,12,16.70
2007,06,22,14,13,16.70
2007,06,22,14,14,16.80
2007,06,22,14,15,16.80
2007,06,22,14,16,16.70
2007,06,22,14,17,16.70
2007,06,22,14,18,16.60
2007,06,22,14,19,16.50
2007,06,22,14,20,16.40
2007,06,22,14,21,16.30
2007,06,22,14,22,16.30
2007,06,22,14,23,16.20
2007,06,22,14,24,16.20
2007,06,22,14,25,16.20
2007,06,22,14,26,16.30
2007,06,22,14,27,16.30
2007,06,22,14,28,16.30
2007,06,22,14,29,16.20
2007,06,22,14,30,16.20
2007,06,22,14,31,16.10
2007,06,22,14,32,16.10
2007,06,22,14,33,16.10
2007,06,22,14,34,16.00
2007,06,22,14,35,16.00
2007,06,22,14,36,16.00
2007,06,22,14,37,16.00
2007,06,22,14,38,16.10
2007,06,22,14,39,16.00
2007,06,22,14,40,16.00
2007,06,22,14,41,15.90
2007,06,22,14,42,15.90
2007,06,22,14,43,16.00
2007,06,22,14,44,16.10
2007,06,22,14,45,16.10
2007,06,22,14,46,16.20
2007,06,22,14,47,16.30
2007,06,22,14,48,16.30
2007,06,22,14,49,16.30
2007,06,22,14,50,16.30
2007,06,22,14,51,16.30
2007,06,22,14,52,16.40
2007,06,22,14,53,16.40
2007,06,22,14,54,16.40
2007,06,22,14,55,16.50
2007,06,22,14,56,16.60
2007,06,22,14,57,16.70
2007,06,22,14,58,16.70
2007,06,22,14,59,16.70
2007,06,22,15,00,16.70
2007,06,22,15,01,16.70
2007,06,22,15,02,16.70
2007,06,22,15,03,16.70
2007,06,22,15,04,16.70
2007,06,22,15,05,16.70
2007,06,22,15,06,16.70
2007,06,22,15,07,16.60
2007,06,22,15,08,16.60
2007,06,22,15,09,16.60
2007,06,22,15,10,16.50
2007,06,22,15,11,16.50
2007,06,22,15,12,16.60
2007,06,22,15,13,16.60
2007,06,22,15,14,16.70
2007,06,22,15,15,16.70
2007,06,22,15,16,16.70
2007,06,22,15,17,16.70
2007,06,22,15,18,16.70
2007,06,22,15,19,16.70
2007,06,22,15,20,16.80
2007,06,22,15,21,16.80
2007,06,22,15,22,16.90
2007,06,22,15,23,17.00
2007,06,22,15,24,17.00
2007,06,22,15,25,17.00
2007,06,22,15,26,17.10
2007,06,22,15,27,17.10
2007,06,22,15,28,17.00
2007,06,22,15,29,16.90
2007,06,22,15,30,16.90
2007,06,22,15,31,16.80
2007,06,22,15,32,16.90
2007,06,22,15,33,16.90
2007,06,22,15,34,16.90
2007,06,22,15,35,17.00
2007,06,22,15,36,17.10
2007,06,22,15,37,17.20
2007,06,22,15,38,17.20
2007,06,22,15,39,17.20
2007,06,22,15,40,17.20
2007,06,22,15,41,17.30
2007,06,22,15,42,17.30
2007,06,22,15,43,17.30
2007,06,22,15,44,17.30
2007,06,22,15,45,17.40
2007,06,22,15,46,17.50
2007,06,22,15,47,17.60
2007,06,22,15,48,17.70
2007,06,22,15,49,17.80
2007,06,22,15,50,17.80
2007,06,22,15,51,17.80
2007,06,22,15,52,17.70
2007,06,22,15,53,17.60
2007,06,22,15,54,17.50
2007,06,22,15,55,17.40
2007,06,22,15,56,17.20
2007,06,22,15,57,17.00
2007,06,22,15,58,16.90
2007,06,22,15,59,16.80
2007,06,22,16,00,16.70
2007,06,22,16,01,16.60
2007,06,22,16,02,16.50
2007,06,22,16,03,16.30
2007,06,22,16,04,16.20
2007,06,22,16,05,16.20
2007,06,22,16,06,16.10
2007,06,22,16,07,16.00
2007,06,22,16,08,15.90
2007,06,22,16,09,15.90
2007,06,22,16,10,15.80
2007,06,22,16,11,15.90
2007,06,22,16,12,15.90
2007,06,22,16,13,16.00
2007,06,22,16,14,16.00
2007,06,22,16,15,16.00
2007,06,22,16,16,16.10
2007,06,22,16,17,16.10
2007,06,22,16,18,16.10
2007,06,22,16,19,16.10
2007,06,22,16,20,16.10
2007,06,22,16,21,16.20
2007,06,22,16,22,16.20
2007,06,22,16,23,16.30
2007,06,22,16,24,16.30
2007,06,22,16,25,16.40
2007,06,22,16,26,16.40
2007,06,22,16,27,16.50
2007,06,22,16,28,16.50
2007,06,22,16,29,16.50
2007,06,22,16,30,16.50
2007,06,22,16,31,16.50
2007,06,22,16,32,16.50
2007,06,22,16,33,16.60
2007,06,22,16,34,16.70
2007,06,22,16,35,16.70
2007,06,22,16,36,16.80
2007,06,22,16,37,16.80
2007,06,22,16,38,16.90
2007,06,22,16,39,17.00
2007,06,22,16,40,17.10
2007,06,22,16,41,17.10
2007,06,22,16,42,17.10
2007,06,22,16,43,17.10
2007,06,22,16,44,17.20
2007,06,22,16,45,17.20
2007,06,22,16,46,17.20
2007,06,22,16,47,17.20
2007,06,22,16,48,17.20
2007,06,22,16,49,17.20
2007,06,22,16,50,17.30
2007,06,22,16,51,17.30
2007,06,22,16,52,17.30
2007,06,22,16,53,17.30
2007,06,22,16,54,17.30
2007,06,22,16,55,17.30
2007,06,22,16,56,17.30
2007,06,22,16,57,17.40
2007,06,22,16,58,17.30
2007,06,22,16,59,17.40
2007,06,22,17,00,17.40
2007,06,22,17,01,17.40
2007,06,22,17,02,17.40
2007,06,22,17,03,17.30
2007,06,22,17,04,17.30
2007,06,22,17,05,17.30
2007,06,22,17,06,17.30
2007,06,22,17,07,17.30
2007,06,22,17,08,17.30
2007,06,22,17,09,17.20
2007,06,22,17,10,17.20
2007,06,22,17,11,17.20
2007,06,22,17,12,17.20
2007,06,22,17,13,17.10
2007,06,22,17,14,17.10
2007,06,22,17,15,17.00
2007,06,22,17,16,17.00
2007,06,22,17,17,17.00
2007,06,22,17,18,16.90
2007,06,22,17,19,16.90